Location: Newark
(54.6833°N, 25.2833°E)
Time: 01:37:35
(UTC+00:00)

A-11 Canister half - Pass Details

Date: 25 January 2021
Orbit: 1525 x 1684 km, 47.3° (Epoch: 05 March)

Event Time Altitude Azimuth Distance (km) Brightness Sun altitude
Rises 18:17:03 0° 281° (WNW) 4,744 12.8 -30.4°
Reaches altitude 10° 18:20:25 10° 273° (W) 3,780 11.9 -30.9°
Maximum altitude 18:28:43 35° 213° (SSW) 2,405 10.1 -32.1°
Enters shadow 18:32:46 25° 174° (S) 2,823 10.1 -32.6°
